User: anonymous   Login
Location: Unspecified
(0.0000°N, 0.0000°E)
Time: 20:44:44
(UTC+00:00)
Language:

NRL PL153 - Orbit

View from above orbital plane
View from above orbital plane
View from above satellite
View from above satellite

Ground track
Ground track

The orbit is defined by the following mean orbital elements,

1 02874U          26145.35156122 +.00000000 +00000-0 +49830-4 0 00005
2 02874  69.9717 164.2530 0009581 237.1634 122.8550 13.96824648    06
Epoch (UTC): 25 May 2026 08:26:14
Eccentricity: 0.0009581
inclination: 69.9717°
perigee height: 898 km
apogee height: 912 km
right ascension of ascending node: 164.2530°
argument of perigee: 237.1634°
revolutions per day: 13.96824648
mean anomaly at epoch: 122.8550°

The dashed part of the orbit path shows where the satellite is in the earth's shadow,  

DLR